Notices

What's New in latest Release from April 7th, 2021:

- Updated Glossary, including Speed of Maximum Gust, and Total Hourly Precipitation

- Updated national and regional climate services offices contacts and prices information

- Addition of station inventory lists for 1981-2010, 1971-2000, and 1961-1990 Normals.

If you haven't already, please take our survey and provide feedback about our website: https://eccc.sondage-survey.ca/f/LanguageSelection.aspx?s=442ca660-fcf1-47c0-95a9-59707d6fd709

Hourly Data Report for July 17, 2020

TORONTO CITY
ONTARIO
Current Station Operator: ECCC - MSC

43°40'00.000" N
79°24'00.000" W
112.50 m
6158355
71508
XTO

Download Data

Hourly Data (July 2020)
Hourly Data Report for July 17, 2020
TIME
LST
Temp Definition
°C
Dew Point Definition
°C
Rel Hum Definition
%
Precip. Amount Definition
mm

Wind Dir Definition
10's deg

Wind Spd Definition
km/h
Visibility Definition
km
Stn Press Definition
kPa
Hmdx Definition


Wind Chill Definition


Weather Definition


00:00 22.9 20.1 84 0.0       100.04 31   LegendNANA
01:00 22.6 19.4 82 0.0       100.09 30   LegendNANA
02:00 22.5 19.4 82 0.0       100.13 30   LegendNANA
03:00 22.4 19.1 81 0.0       100.22 29   LegendNANA
04:00 22.4 18.4 78 0.0       100.29 29   LegendNANA
05:00 22.0 17.7 76 0.0       100.39 28   LegendNANA
06:00 21.2 16.4 74 0.0       100.49 26   LegendNANA
07:00 21.5 16.0 71 0.0       100.53 26   LegendNANA
08:00 22.9 15.3 62 0.0       100.58 27   LegendNANA
09:00 24.9 15.7 57 0.0       100.60 29   LegendNANA
10:00 27.0 15.7 50 0.0       100.60 31   LegendNANA
11:00 26.7 16.3 53 0.0       100.60 32   LegendNANA
12:00 27.0 15.6 50 0.0       100.59 31   LegendNANA
13:00 28.2 14.3 43 0.0       100.55 32   LegendNANA
14:00 29.2 14.6 41 0.0       100.52 33   LegendNANA
15:00 30.1 13.7 37 0.0       100.47 33   LegendNANA
16:00 29.7 15.1 41 0.0       100.43 34   LegendNANA
17:00 29.5 15.5 43 0.3       100.38 34   LegendNANA
18:00 28.5 16.8 49 0.0       100.37 34   LegendNANA
19:00 27.5 17.3 54 0.0       100.34 33   LegendNANA
20:00 26.4 18.0 60 0.0       100.35 32   LegendNANA
21:00 25.7 16.4 57 0.0       100.40 31   LegendNANA
22:00 24.5 14.6 54 0.0       100.41 28   LegendNANA
23:00 23.8 14.2 55 0.0       100.43 27   LegendNANA

Notes on Data Quality.

Legend

  • E = Estimated
  • M = Missing
  • NA = Not Available*
  • [empty] = Indicates an unobserved value
Date modified: